Fort Leonard Wood, MO

11:18 PM CDT on May 28, 2017 (GMT -0500)
Waynesville Regional At Forney Field

Weather History for KTBN - February, 2014

Change the Weather History Date:

Friday, February 28, 2014

  Actual Average Record
Temperature  
Mean Temperature 36 °F -  
Max Temperature 50 °F 46 °F 77 °F (2006)
Min Temperature 21 °F 31 °F 17 °F (2009)
Degree Days  
Heating Degree Days 30    
Moisture  
Dew Point 15 °F    
Average Humidity 42    
Maximum Humidity 70    
Minimum Humidity 27    
Precipitation  
Precipitation 0.00 in - - ()
Sea Level Pressure  
Sea Level Pressure 29.98 in    
Wind  
Wind Speed 11 mph (SSE)    
Max Wind Speed 20 mph    
Max Gust Speed 25 mph    
Visibility 10 miles    
Events      
Averages and records for this station are not official NWS values.
T = Trace of Precipitation, MM = Missing Value Source: NWS Daily Summary

Daily Weather History Graph

Daily Weather History Graph

Search for Another Location

Airport or City:

Trip Planner

Search our weather history database for the weather conditions in past years. The results will help you decide how hot, cold, wet, or windy it might be!

Date:

Astronomy

Feb. 28, 2014 Rise Set
Actual Time 6:41 AM CST 6:01 PM CST
Civil Twilight 6:15 AM CST 6:27 PM CST
Nautical Twilight 5:44 AM CST 6:58 PM CST
Astronomical Twilight 5:14 AM CST 7:28 PM CST
Moon 5:56 AM CST (2/28) 5:38 PM CST (2/28)
Length of Visible Light 12h 12m
Length of Day
11h 19m
Waning Crescent, 1% of the Moon is Illuminated
Feb 28
Waning Crescent
Mar 1
New
Mar 8
First Quarter
Mar 16
Full
Mar 23
Last Quarter

Hourly Weather History & Observations

Time (CST) Temp. Windchill Dew Point Humidity Pressure Visibility Wind Dir Wind Speed Gust Speed Precip Events Conditions
12:58 AM 23.0 °F 13.9 °F 0.7 °F 38% 30.03 in 10.0 mi East 8.1 mph - N/A   Clear
1:58 AM 22.3 °F 12.2 °F 2.3 °F 42% 30.02 in 10.0 mi ESE 9.2 mph - N/A   Clear
2:58 AM 22.5 °F 11.1 °F 2.7 °F 43% 30.00 in 10.0 mi SE 11.5 mph - N/A   Clear
3:58 AM 22.5 °F 9.9 °F 3.0 °F 43% 29.99 in 10.0 mi SE 13.8 mph - N/A   Partly Cloudy
4:58 AM 21.9 °F 10.4 °F 3.7 °F 46% 29.99 in 10.0 mi SE 11.5 mph - N/A   Clear
5:58 AM 21.9 °F 8.7 °F 4.8 °F 48% 30.01 in 10.0 mi SSE 15.0 mph - N/A   Clear
6:58 AM 21.6 °F 8.8 °F 5.4 °F 50% 30.00 in 10.0 mi SE 13.8 mph - N/A   Clear
7:58 AM 24.4 °F 11.5 °F 6.4 °F 46% 30.01 in 10.0 mi SE 16.1 mph 23.0 mph N/A   Clear
8:58 AM 29.3 °F 17.3 °F 9.0 °F 43% 30.01 in 10.0 mi SSE 17.3 mph - N/A   Clear
9:58 AM 33.6 °F 23.7 °F 10.9 °F 39% 30.00 in 10.0 mi SSE 15.0 mph 25.3 mph N/A   Scattered Clouds
10:58 AM 41.5 °F 32.6 °F 13.8 °F 32% 30.00 in 10.0 mi SSE 19.6 mph 25.3 mph N/A   Clear
11:58 AM 43.9 °F 38.3 °F 14.9 °F 31% 29.99 in 10.0 mi SSE 10.4 mph 20.7 mph N/A   Clear
12:58 PM 44.8 °F 38.7 °F 14.5 °F 30% 29.96 in 10.0 mi SSE 12.7 mph - N/A   Scattered Clouds
1:09 PM 46.4 °F 40.1 °F 14.0 °F 27% 29.91 in 10.0 mi SE 15.0 mph 19.6 mph N/A   Scattered Clouds
1:32 PM 46.4 °F 41.1 °F 14.0 °F 27% 29.89 in 10.0 mi South 11.5 mph 19.6 mph N/A   Mostly Cloudy
1:58 PM 45.7 °F 40.2 °F 14.5 °F 29% 29.93 in 10.0 mi South 11.5 mph 19.6 mph N/A   Scattered Clouds
2:58 PM 47.8 °F - 16.3 °F 28% 29.91 in 10.0 mi South 10.4 mph 24.2 mph N/A   Mostly Cloudy
3:16 PM 50.0 °F - 17.6 °F 28% 29.86 in 10.0 mi South 13.8 mph 21.9 mph N/A   Mostly Cloudy
3:58 PM 48.6 °F - 18.1 °F 30% 29.91 in 10.0 mi SSE 13.8 mph 17.3 mph N/A   Overcast
4:58 PM 46.8 °F - 18.7 °F 33% 29.93 in 10.0 mi SSE 8.1 mph - N/A   Overcast
5:58 PM 45.1 °F 40.3 °F 21.6 °F 39% 29.95 in 10.0 mi SSE 9.2 mph - N/A   Overcast
6:58 PM 43.7 °F 37.7 °F 26.2 °F 50% 29.98 in 10.0 mi South 11.5 mph 20.7 mph N/A   Overcast
7:58 PM 42.6 °F 37.8 °F 26.6 °F 53% 29.99 in 10.0 mi SSE 8.1 mph - N/A   Overcast
8:58 PM 41.0 °F 35.2 °F 28.4 °F 61% 30.00 in 10.0 mi South 9.2 mph - N/A   Overcast
9:58 PM 40.8 °F 34.5 °F 29.7 °F 64% 30.00 in 10.0 mi South 10.4 mph - N/A   Overcast
10:58 PM 40.5 °F 37.3 °F 30.2 °F 67% 30.03 in 10.0 mi SSW 4.6 mph - N/A   Overcast
11:58 PM 40.3 °F 36.3 °F 31.3 °F 70% 30.04 in 10.0 mi SSW 5.8 mph - N/A   Overcast